Location: Montreal
(45.5087°N, 73.5540°W)
Time: 11:13:12
(UTC-04:00)

Tiangong - Visible Passes

Search period start: 10 May 2026 00:00
Search period end: 20 May 2026 00:00
Orbit: 379 x 384 km, 41.5° (Epoch: 10 May)

Date Brightness Start Highest point End Pass type
(mag) Time Alt. Az. Time Alt. Az. Time Alt. Az.
10 May 0.0 03:06:07 19° ESE 03:06:07 19° ESE 03:07:23 10° ESE visible
10 May -1.5 04:38:16 11° WSW 04:41:03 39° S 04:44:03 10° ESE visible
11 May -1.6 03:40:18 38° S 03:40:28 38° S 03:43:27 10° ESE visible
12 May 0.6 02:42:22 13° ESE 02:42:22 13° ESE 02:42:47 10° ESE visible
12 May -1.4 04:14:30 19° WSW 04:16:20 36° S 04:19:16 10° ESE visible
13 May -0.9 03:16:39 30° SE 03:16:39 30° SE 03:18:40 10° ESE visible
13 May -0.8 04:49:29 10° WSW 04:52:05 23° SSW 04:54:39 10° SE visible
14 May -1.3 03:51:05 29° SSW 03:51:27 30° SSW 03:54:17 10° SE visible
15 May 0.6 02:53:36 11° ESE 02:53:36 11° ESE 02:53:42 10° ESE visible
15 May -0.4 04:25:47 14° SW 04:27:03 17° SSW 04:29:12 10° SSE visible
16 May 0.3 03:28:38 12° SSE 03:28:38 12° SSE 03:29:00 10° SE visible
19 May -0.5 21:44:35 10° SSW 21:46:27 18° S 21:46:27 18° S visible
